Location: Grand Lay
(47.3253°N, 0.9468°E)
Time: 17:54:01
(UTC+00:00)

Lacrosse 4 Rocket - Pass Details

Date: 18 January 2026
Orbit: 512 x 564 km, 68.0° (Epoch: 16 February)

Event Time Altitude Azimuth Distance (km) Brightness Sun altitude
Exits shadow 04:57:17 - 174° (S) 2,224 4.5 -26.5°
Reaches altitude 10° 04:58:37 10° 165° (SSE) 1,760 4.1 -26.3°
Maximum altitude 05:01:47 24° 111° (ESE) 1,114 3.5 -25.8°
Drops below altitude 10° 05:04:57 10° 57° (ENE) 1,753 4.6 -25.2°
Sets 05:07:24 0° 43° (NE) 2,640 5.3 -24.8°
